FDX479 SKBO-SVMI

Flight info

Callsign FDX479
Flight time 1h 42m
Altitude 33000
Route DANSA4R AKROB DCT KIKAS UP533 PBL ALDAK1
Aircraft B77L/H-SDE1E2E3FGHIJ2J3J4J5M1RWXY/LB1D1

Departure

Time 2026-05-06 07:46
Airport El Dorado International Airport (SKBO)

Arrival

Time 2026-05-06 09:28
Airport Maiquetía Simón Bolívar International Airport (SVMI)
Time Latitude Longitude Altitude Speed Heading
2026-05-06 07:18 4.69244 -74.14160 8370 ft 0 kts 345°
2026-05-06 07:28 4.69260 -74.14188 8370 ft 5 kts 298°
2026-05-06 07:29 4.69292 -74.14237 8369 ft 12 kts 307°
2026-05-06 07:29 4.69344 -74.14306 8369 ft 12 kts 307°
2026-05-06 07:29 4.69395 -74.14375 8370 ft 12 kts 307°
2026-05-06 07:29 4.69448 -74.14442 8369 ft 12 kts 308°
2026-05-06 07:30 4.69501 -74.14511 8369 ft 12 kts 307°
2026-05-06 07:30 4.69552 -74.14579 8369 ft 12 kts 307°
2026-05-06 07:30 4.69604 -74.14647 8369 ft 12 kts 307°
2026-05-06 07:30 4.69655 -74.14715 8369 ft 12 kts 306°
2026-05-06 07:31 4.69706 -74.14784 8369 ft 12 kts 307°
2026-05-06 07:31 4.69757 -74.14853 8369 ft 12 kts 307°
2026-05-06 07:31 4.69809 -74.14921 8369 ft 12 kts 307°
2026-05-06 07:31 4.69861 -74.14990 8369 ft 12 kts 307°
2026-05-06 07:32 4.69912 -74.15058 8369 ft 12 kts 307°
2026-05-06 07:32 4.69964 -74.15126 8369 ft 12 kts 307°
2026-05-06 07:32 4.70016 -74.15195 8369 ft 12 kts 307°
2026-05-06 07:32 4.70068 -74.15263 8369 ft 12 kts 307°
2026-05-06 07:33 4.70119 -74.15331 8368 ft 12 kts 307°
2026-05-06 07:33 4.70171 -74.15399 8368 ft 12 kts 307°
2026-05-06 07:33 4.70223 -74.15467 8368 ft 12 kts 307°
2026-05-06 07:33 4.70275 -74.15535 8368 ft 12 kts 307°
2026-05-06 07:34 4.70327 -74.15603 8368 ft 12 kts 307°
2026-05-06 07:34 4.70379 -74.15671 8367 ft 12 kts 308°
2026-05-06 07:34 4.70431 -74.15739 8367 ft 12 kts 306°
2026-05-06 07:34 4.70482 -74.15808 8368 ft 12 kts 306°
2026-05-06 07:35 4.70533 -74.15877 8368 ft 12 kts 307°
2026-05-06 07:35 4.70584 -74.15946 8368 ft 12 kts 307°
2026-05-06 07:35 4.70635 -74.16014 8367 ft 12 kts 307°
2026-05-06 07:35 4.70687 -74.16082 8367 ft 12 kts 307°
2026-05-06 07:36 4.70739 -74.16150 8368 ft 12 kts 307°
2026-05-06 07:36 4.70791 -74.16218 8367 ft 12 kts 307°
2026-05-06 07:36 4.70843 -74.16286 8367 ft 12 kts 307°
2026-05-06 07:36 4.70895 -74.16354 8367 ft 12 kts 307°
2026-05-06 07:37 4.70948 -74.16422 8367 ft 12 kts 307°
2026-05-06 07:37 4.70999 -74.16490 8367 ft 12 kts 307°
2026-05-06 07:37 4.71051 -74.16557 8366 ft 12 kts 307°
2026-05-06 07:37 4.71103 -74.16625 8367 ft 12 kts 307°
2026-05-06 07:38 4.71155 -74.16694 8366 ft 12 kts 307°
2026-05-06 07:38 4.71206 -74.16762 8366 ft 12 kts 307°
2026-05-06 07:38 4.71245 -74.16836 8366 ft 12 kts 269°
2026-05-06 07:38 4.71231 -74.16863 8366 ft 0 kts 225°
2026-05-06 07:43 4.71223 -74.16871 8366 ft 7 kts 225°
2026-05-06 07:43 4.71180 -74.16900 8366 ft 8 kts 196°
2026-05-06 07:44 4.71124 -74.16897 8365 ft 9 kts 173°
2026-05-06 07:44 4.71065 -74.16890 8365 ft 9 kts 173°
2026-05-06 07:44 4.71016 -74.16862 8365 ft 8 kts 129°
2026-05-06 07:44 4.70996 -74.16838 8366 ft 0 kts 125°
2026-05-06 07:45 4.70988 -74.16827 8366 ft 14 kts 125°
2026-05-06 07:45 4.70787 -74.16560 8367 ft 80 kts 128°
2026-05-06 07:45 4.70327 -74.15955 8367 ft 139 kts 127°
2026-05-06 07:45 4.69634 -74.15044 8368 ft 187 kts 127°
2026-05-06 07:46 4.68790 -74.13961 8624 ft 200 kts 128°
2026-05-06 07:46 4.67906 -74.12837 9023 ft 211 kts 128°
2026-05-06 07:46 4.66975 -74.11673 9536 ft 215 kts 130°
2026-05-06 07:46 4.65794 -74.10737 9982 ft 225 kts 156°
2026-05-06 07:47 4.64202 -74.10492 10254 ft 244 kts 187°
2026-05-06 07:47 4.62679 -74.11251 10632 ft 256 kts 227°
2026-05-06 07:47 4.61935 -74.12887 10951 ft 266 kts 266°
2026-05-06 07:47 4.62137 -74.14727 11506 ft 266 kts 288°
2026-05-06 07:48 4.62594 -74.16511 12045 ft 271 kts 273°
2026-05-06 07:48 4.62349 -74.18377 12382 ft 277 kts 253°
2026-05-06 07:48 4.61855 -74.20254 12996 ft 280 kts 255°
2026-05-06 07:48 4.61394 -74.22163 13634 ft 284 kts 255°
2026-05-06 07:49 4.60949 -74.24157 13919 ft 305 kts 256°
2026-05-06 07:49 4.60462 -74.26302 14060 ft 326 kts 250°
2026-05-06 07:49 4.59995 -74.27420 14136 ft 336 kts 238°
2026-05-06 07:49 4.59887 -74.27613 14147 ft 338 kts 236°
2026-05-06 07:50 4.59387 -74.28333 14202 ft 343 kts 227°
2026-05-06 07:52 4.58198 -74.29598 14308 ft 357 kts 222°
2026-05-06 07:52 4.56375 -74.31403 14406 ft 380 kts 222°
2026-05-06 07:52 4.54460 -74.33337 14567 ft 401 kts 223°
2026-05-06 07:53 4.52463 -74.35340 14913 ft 410 kts 219°
2026-05-06 07:53 4.50054 -74.36860 15328 ft 411 kts 199°
2026-05-06 07:53 4.47335 -74.37746 15808 ft 410 kts 199°
2026-05-06 07:53 4.44863 -74.39190 16102 ft 421 kts 215°
2026-05-06 07:54 4.42477 -74.40955 16622 ft 428 kts 212°
2026-05-06 07:54 4.39956 -74.42546 17311 ft 426 kts 206°
2026-05-06 07:54 4.37165 -74.43527 17838 ft 428 kts 187°
2026-05-06 07:54 4.34199 -74.43571 18427 ft 428 kts 169°
2026-05-06 07:55 4.31352 -74.42733 18986 ft 426 kts 152°
2026-05-06 07:55 4.28894 -74.41104 19534 ft 425 kts 135°
2026-05-06 07:55 4.27627 -74.39701 19879 ft 425 kts 125°
2026-05-06 07:56 4.27189 -74.39075 20007 ft 425 kts 121°
2026-05-06 07:57 4.26863 -74.38544 20116 ft 425 kts 118°
2026-05-06 07:57 4.26741 -74.38328 20160 ft 426 kts 117°
2026-05-06 07:58 4.26705 -74.38263 20173 ft 426 kts 116°
2026-05-06 07:58 4.26367 -74.37583 20302 ft 426 kts 112°
2026-05-06 07:58 4.26345 -74.37535 20310 ft 426 kts 112°
2026-05-06 07:59 4.25684 -74.35375 20664 ft 425 kts 100°
2026-05-06 07:59 4.25201 -74.32434 21063 ft 431 kts 98°
2026-05-06 07:59 4.24765 -74.29448 21527 ft 435 kts 97°
2026-05-06 08:00 4.24324 -74.26441 22094 ft 437 kts 98°
2026-05-06 08:00 4.23864 -74.23423 22626 ft 440 kts 98°
2026-05-06 08:00 4.23380 -74.20378 23099 ft 444 kts 98°
2026-05-06 08:00 4.22885 -74.17349 23546 ft 448 kts 98°
2026-05-06 08:01 4.22373 -74.14255 23956 ft 452 kts 98°
2026-05-06 08:01 4.21857 -74.11140 24339 ft 455 kts 98°
2026-05-06 08:01 4.21338 -74.08006 24752 ft 457 kts 98°
2026-05-06 08:01 4.20839 -74.04858 25112 ft 456 kts 95°
2026-05-06 08:02 4.20929 -74.01671 25297 ft 462 kts 78°
2026-05-06 08:02 4.22010 -73.98637 25641 ft 465 kts 61°
2026-05-06 08:02 4.23915 -73.96019 26047 ft 467 kts 46°
2026-05-06 08:02 4.26412 -73.93920 26467 ft 470 kts 35°
2026-05-06 08:03 4.29318 -73.92397 26782 ft 477 kts 20°
2026-05-06 08:03 4.32565 -73.91645 27041 ft 481 kts 11°
2026-05-06 08:03 4.35886 -73.91100 27340 ft 485 kts 10°
2026-05-06 08:03 4.39231 -73.90562 27674 ft 488 kts 11°
2026-05-06 08:04 4.42583 -73.89978 28001 ft 490 kts 11°
2026-05-06 08:04 4.45899 -73.89354 28345 ft 492 kts 12°
2026-05-06 08:04 4.49278 -73.88694 28689 ft 494 kts 12°
2026-05-06 08:04 4.52674 -73.88085 28974 ft 497 kts
2026-05-06 08:05 4.56146 -73.88128 29151 ft 503 kts 351°
2026-05-06 08:05 4.59567 -73.88935 29411 ft 506 kts 346°
2026-05-06 08:05 4.62978 -73.89841 29717 ft 508 kts 346°
2026-05-06 08:05 4.66418 -73.90708 30050 ft 510 kts 348°
2026-05-06 08:06 4.69879 -73.91511 30388 ft 510 kts 348°
2026-05-06 08:06 4.73346 -73.92282 30758 ft 509 kts 348°
2026-05-06 08:06 4.76800 -73.93046 31193 ft 507 kts 348°
2026-05-06 08:06 4.80203 -73.93806 31574 ft 506 kts 348°
2026-05-06 08:07 4.83637 -73.94577 31962 ft 505 kts 348°
2026-05-06 08:07 4.87071 -73.95351 32298 ft 505 kts 348°
2026-05-06 08:07 4.90497 -73.96122 32635 ft 505 kts 348°
2026-05-06 08:07 4.93922 -73.96893 32986 ft 504 kts 348°
2026-05-06 08:08 4.97345 -73.97663 33322 ft 504 kts 348°
2026-05-06 08:08 5.00788 -73.98339 33269 ft 506 kts 355°
2026-05-06 08:08 5.01969 -73.98425 33280 ft 504 kts
2026-05-06 08:09 5.02312 -73.98431 33283 ft 504 kts
2026-05-06 08:10 5.05757 -73.97946 33229 ft 498 kts 16°
2026-05-06 08:10 5.09090 -73.96987 33194 ft 498 kts 18°
2026-05-06 08:10 5.15783 -73.95163 33121 ft 499 kts 15°
2026-05-06 08:11 5.22245 -73.92828 33116 ft 492 kts 37°
2026-05-06 08:11 5.24728 -73.90559 33131 ft 489 kts 52°
2026-05-06 08:11 5.26613 -73.87733 33129 ft 487 kts 64°
2026-05-06 08:12 5.27785 -73.84565 33123 ft 482 kts 77°
2026-05-06 08:12 5.28542 -73.81281 33133 ft 482 kts 78°
2026-05-06 08:12 5.30050 -73.74766 33133 ft 478 kts 77°
2026-05-06 08:13 5.31637 -73.68251 33144 ft 481 kts 77°
2026-05-06 08:13 5.33258 -73.61754 33162 ft 482 kts 77°
2026-05-06 08:14 5.34893 -73.55198 33162 ft 490 kts 77°
2026-05-06 08:14 5.36551 -73.48531 33153 ft 495 kts 77°
2026-05-06 08:15 5.38984 -73.42081 33152 ft 499 kts 56°
2026-05-06 08:15 5.41280 -73.39476 33137 ft 498 kts 42°
2026-05-06 08:15 5.43917 -73.37227 33156 ft 498 kts 41°
2026-05-06 08:16 5.49140 -73.32751 33150 ft 495 kts 42°
2026-05-06 08:16 5.54316 -73.28210 33151 ft 494 kts 42°
2026-05-06 08:17 5.59467 -73.23630 33146 ft 493 kts 43°
2026-05-06 08:17 5.64607 -73.19049 33156 ft 494 kts 43°
2026-05-06 08:18 5.69763 -73.14456 33148 ft 496 kts 42°
2026-05-06 08:18 5.74934 -73.09852 33145 ft 497 kts 43°
2026-05-06 08:19 5.80092 -73.05262 33148 ft 499 kts 43°
2026-05-06 08:19 5.85294 -73.00629 33148 ft 500 kts 43°
2026-05-06 08:20 5.90502 -72.95988 33139 ft 500 kts 43°
2026-05-06 08:20 5.91871 -72.94767 33144 ft 500 kts 43°
2026-05-06 08:21 5.97034 -72.90167 33140 ft 500 kts 43°
2026-05-06 08:21 6.02239 -72.85527 33145 ft 500 kts 43°
2026-05-06 08:22 6.07451 -72.80880 33141 ft 500 kts 42°
2026-05-06 08:22 6.12662 -72.76233 33138 ft 500 kts 42°
2026-05-06 08:23 6.17871 -72.71586 33132 ft 500 kts 42°
2026-05-06 08:23 6.23078 -72.66939 33133 ft 500 kts 42°
2026-05-06 08:24 6.28247 -72.62326 33135 ft 500 kts 42°
2026-05-06 08:24 6.29007 -72.61647 33134 ft 500 kts 42°
2026-05-06 08:25 6.31571 -72.59356 33144 ft 500 kts 42°
2026-05-06 08:25 6.36767 -72.54716 33147 ft 499 kts 42°
2026-05-06 08:26 6.38284 -72.53361 33148 ft 499 kts 42°
2026-05-06 08:26 6.38671 -72.53016 33146 ft 499 kts 42°
2026-05-06 08:27 6.43864 -72.48377 33156 ft 499 kts 42°
2026-05-06 08:27 6.49070 -72.43727 33163 ft 500 kts 42°
2026-05-06 08:28 6.51746 -72.41334 33172 ft 500 kts 42°
2026-05-06 08:29 6.54211 -72.39130 33165 ft 500 kts 42°
2026-05-06 08:29 6.59409 -72.34481 33177 ft 500 kts 42°
2026-05-06 08:30 6.64606 -72.29832 33167 ft 500 kts 42°
2026-05-06 08:30 6.69805 -72.25181 33158 ft 500 kts 42°
2026-05-06 08:31 6.74993 -72.20538 33139 ft 499 kts 41°
2026-05-06 08:31 6.80183 -72.15893 33108 ft 498 kts 41°
2026-05-06 08:32 6.85361 -72.11255 33056 ft 497 kts 41°
2026-05-06 08:32 6.90493 -72.06658 33012 ft 496 kts 41°
2026-05-06 08:33 6.92827 -72.04566 33001 ft 495 kts 41°
2026-05-06 08:33 6.96673 -72.01119 32986 ft 495 kts 41°
2026-05-06 08:34 7.04194 -71.94007 32978 ft 494 kts 46°
2026-05-06 08:35 7.08852 -71.88926 32976 ft 494 kts 47°
2026-05-06 08:35 7.13508 -71.83814 32979 ft 495 kts 47°
2026-05-06 08:36 7.18161 -71.78738 32982 ft 497 kts 47°
2026-05-06 08:36 7.22873 -71.73622 32986 ft 498 kts 47°
2026-05-06 08:37 7.27595 -71.68497 32986 ft 499 kts 47°
2026-05-06 08:37 7.32327 -71.63359 32985 ft 500 kts 47°
2026-05-06 08:38 7.37058 -71.58219 32981 ft 501 kts 47°
2026-05-06 08:38 7.41796 -71.53067 32980 ft 501 kts 47°
2026-05-06 08:39 7.46507 -71.47944 32981 ft 501 kts 47°
2026-05-06 08:39 7.51243 -71.42792 32978 ft 501 kts 47°
2026-05-06 08:40 7.55974 -71.37644 32979 ft 500 kts 47°
2026-05-06 08:40 7.60705 -71.32493 32980 ft 500 kts 47°
2026-05-06 08:41 7.65429 -71.27350 32984 ft 500 kts 47°
2026-05-06 08:41 7.70121 -71.22239 32987 ft 499 kts 47°
2026-05-06 08:42 7.74840 -71.17096 32986 ft 499 kts 47°
2026-05-06 08:42 7.79563 -71.11947 32989 ft 499 kts 48°
2026-05-06 08:43 7.84280 -71.06804 32990 ft 499 kts 48°
2026-05-06 08:43 7.88997 -71.01658 32986 ft 499 kts 47°
2026-05-06 08:44 7.93712 -70.96512 32987 ft 499 kts 47°
2026-05-06 08:44 7.98430 -70.91363 32991 ft 500 kts 47°
2026-05-06 08:45 8.03118 -70.86244 32991 ft 500 kts 47°
2026-05-06 08:45 8.07833 -70.81093 32986 ft 500 kts 47°
2026-05-06 08:46 8.12557 -70.75930 32987 ft 500 kts 47°
2026-05-06 08:46 8.17277 -70.70769 32978 ft 500 kts 47°
2026-05-06 08:47 8.21999 -70.65605 32980 ft 501 kts 47°
2026-05-06 08:47 8.25928 -70.61306 32978 ft 501 kts 47°
2026-05-06 08:48 8.31430 -70.55285 32974 ft 501 kts 47°
2026-05-06 08:48 8.36157 -70.50108 32976 ft 501 kts 47°
2026-05-06 08:49 8.40093 -70.45797 32973 ft 501 kts 47°
2026-05-06 08:49 8.44826 -70.40610 32973 ft 501 kts 47°
2026-05-06 08:50 8.49556 -70.35426 32973 ft 501 kts 47°
2026-05-06 08:50 8.54287 -70.30236 32969 ft 501 kts 47°
2026-05-06 08:51 8.59012 -70.25052 32968 ft 501 kts 47°
2026-05-06 08:51 8.63720 -70.19857 32968 ft 501 kts 48°
2026-05-06 08:52 8.68351 -70.14581 32971 ft 501 kts 49°
2026-05-06 08:52 8.72925 -70.09330 32968 ft 501 kts 49°
2026-05-06 08:53 8.77537 -70.04051 32963 ft 501 kts 48°
2026-05-06 08:53 8.82154 -69.98781 32962 ft 501 kts 48°
2026-05-06 08:54 8.86779 -69.93504 32966 ft 501 kts 48°
2026-05-06 08:54 8.91405 -69.88222 32970 ft 501 kts 48°
2026-05-06 08:55 8.96029 -69.82940 32971 ft 501 kts 48°
2026-05-06 08:55 9.00653 -69.77654 32971 ft 502 kts 48°
2026-05-06 08:56 9.05248 -69.72400 32969 ft 502 kts 48°
2026-05-06 08:56 9.09873 -69.67110 32975 ft 502 kts 48°
2026-05-06 08:57 9.14504 -69.61809 32972 ft 502 kts 48°
2026-05-06 08:57 9.19130 -69.56513 32977 ft 502 kts 48°
2026-05-06 08:58 9.23759 -69.51211 32976 ft 502 kts 48°
2026-05-06 08:58 9.28387 -69.45907 32979 ft 503 kts 48°
2026-05-06 08:59 9.33021 -69.40595 32979 ft 503 kts 48°
2026-05-06 08:59 9.37658 -69.35277 32983 ft 503 kts 48°
2026-05-06 09:00 9.42272 -69.29983 32980 ft 503 kts 48°
2026-05-06 09:00 9.46914 -69.24655 32981 ft 503 kts 48°
2026-05-06 09:01 9.51550 -69.19329 32978 ft 504 kts 48°
2026-05-06 09:01 9.56162 -69.14030 32981 ft 504 kts 48°
2026-05-06 09:02 9.60794 -69.08704 32980 ft 504 kts 48°
2026-05-06 09:02 9.65431 -69.03372 32979 ft 504 kts 48°
2026-05-06 09:03 9.70072 -68.98035 32989 ft 504 kts 48°
2026-05-06 09:03 9.74715 -68.92691 32989 ft 504 kts 48°
2026-05-06 09:04 9.79326 -68.87380 32994 ft 504 kts 48°
2026-05-06 09:04 9.83962 -68.82037 32993 ft 505 kts 48°
2026-05-06 09:05 9.88635 -68.76650 31904 ft 516 kts 48°
2026-05-06 09:05 9.91010 -68.73911 31033 ft 517 kts 48°
2026-05-06 09:05 9.93374 -68.71184 30397 ft 512 kts 48°
2026-05-06 09:05 9.95719 -68.68477 29706 ft 507 kts 48°
2026-05-06 09:06 9.98010 -68.65832 29043 ft 502 kts 48°
2026-05-06 09:06 10.00304 -68.63184 28408 ft 497 kts 48°
2026-05-06 09:06 10.02578 -68.60559 27796 ft 491 kts 48°
2026-05-06 09:06 10.04832 -68.57961 27210 ft 487 kts 48°
2026-05-06 09:07 10.07061 -68.55400 26611 ft 482 kts 47°
2026-05-06 09:07 10.09271 -68.52864 26031 ft 478 kts 48°
2026-05-06 09:07 10.11467 -68.50343 25446 ft 474 kts 48°
2026-05-06 09:07 10.13651 -68.47836 24868 ft 470 kts 48°
2026-05-06 09:08 10.15806 -68.45359 24289 ft 467 kts 48°
2026-05-06 09:08 10.17947 -68.42895 23732 ft 463 kts 48°
2026-05-06 09:08 10.20075 -68.40447 23088 ft 460 kts 48°
2026-05-06 09:08 10.22184 -68.38020 22496 ft 454 kts 48°
2026-05-06 09:09 10.24262 -68.35627 21939 ft 449 kts 48°
2026-05-06 09:09 10.26287 -68.33295 21405 ft 443 kts 48°
2026-05-06 09:09 10.28321 -68.30952 20880 ft 438 kts 48°
2026-05-06 09:09 10.30324 -68.28646 20359 ft 433 kts 48°
2026-05-06 09:10 10.32303 -68.26366 19833 ft 428 kts 48°
2026-05-06 09:10 10.34266 -68.24104 19317 ft 424 kts 48°
2026-05-06 09:10 10.36207 -68.21867 18816 ft 420 kts 47°
2026-05-06 09:10 10.38132 -68.19647 18289 ft 416 kts 47°
2026-05-06 09:11 10.40043 -68.17444 17712 ft 413 kts 48°
2026-05-06 09:11 10.41879 -68.15327 17179 ft 395 kts 48°
2026-05-06 09:11 10.43650 -68.13284 16691 ft 376 kts 49°
2026-05-06 09:11 10.45347 -68.11327 16242 ft 361 kts 49°
2026-05-06 09:12 10.46979 -68.09445 15797 ft 351 kts 49°
2026-05-06 09:12 10.48390 -68.07446 15378 ft 348 kts 65°
2026-05-06 09:12 10.49163 -68.05053 14989 ft 368 kts 76°
2026-05-06 09:12 10.49762 -68.02495 14511 ft 372 kts 77°
2026-05-06 09:13 10.50338 -67.99943 14034 ft 369 kts 78°
2026-05-06 09:13 10.50911 -67.97413 13543 ft 365 kts 78°
2026-05-06 09:13 10.51484 -67.94916 13066 ft 361 kts 78°
2026-05-06 09:13 10.52057 -67.92453 12605 ft 356 kts 78°
2026-05-06 09:14 10.52629 -67.90016 12165 ft 353 kts 78°
2026-05-06 09:14 10.53096 -67.88034 11802 ft 352 kts 78°
2026-05-06 09:14 10.53502 -67.86318 11501 ft 353 kts 78°
2026-05-06 09:14 10.54077 -67.83884 11091 ft 355 kts 78°
2026-05-06 09:15 10.54647 -67.81478 10945 ft 345 kts 78°
2026-05-06 09:15 10.55200 -67.79149 10790 ft 333 kts 78°
2026-05-06 09:15 10.55732 -67.76903 10648 ft 321 kts 78°
2026-05-06 09:15 10.56244 -67.74738 10513 ft 309 kts 78°
2026-05-06 09:16 10.56737 -67.72656 10386 ft 297 kts 78°
2026-05-06 09:16 10.57211 -67.70654 10260 ft 286 kts 79°
2026-05-06 09:16 10.57666 -67.68728 10150 ft 274 kts 79°
2026-05-06 09:16 10.58109 -67.66840 10110 ft 274 kts 80°
2026-05-06 09:17 10.58361 -67.64921 9764 ft 279 kts 89°
2026-05-06 09:17 10.58426 -67.62959 9450 ft 277 kts 91°
2026-05-06 09:17 10.58459 -67.61014 9126 ft 273 kts 91°
2026-05-06 09:17 10.58493 -67.59102 8820 ft 268 kts 91°
2026-05-06 09:18 10.58536 -67.57218 8517 ft 265 kts 90°
2026-05-06 09:18 10.58584 -67.55340 8231 ft 266 kts 90°
2026-05-06 09:18 10.58638 -67.53458 7944 ft 267 kts 90°
2026-05-06 09:18 10.58696 -67.51570 7659 ft 268 kts 90°
2026-05-06 09:19 10.58757 -67.49670 7355 ft 269 kts 89°
2026-05-06 09:19 10.58819 -67.47789 7063 ft 269 kts 89°
2026-05-06 09:19 10.58883 -67.45885 6763 ft 269 kts 90°
2026-05-06 09:19 10.58947 -67.43991 6466 ft 267 kts 89°
2026-05-06 09:20 10.59011 -67.42103 6157 ft 267 kts 90°
2026-05-06 09:20 10.59074 -67.40215 5846 ft 266 kts 89°
2026-05-06 09:20 10.59138 -67.38347 5547 ft 264 kts 89°
2026-05-06 09:20 10.59201 -67.36503 5252 ft 264 kts 89°
2026-05-06 09:21 10.59265 -67.34635 4961 ft 263 kts 89°
2026-05-06 09:21 10.59326 -67.32782 4668 ft 262 kts 89°
2026-05-06 09:21 10.59389 -67.30944 4354 ft 257 kts 89°
2026-05-06 09:21 10.59450 -67.29148 4135 ft 249 kts 89°
2026-05-06 09:22 10.59486 -67.27443 4067 ft 234 kts 90°
2026-05-06 09:22 10.59522 -67.25846 4025 ft 217 kts 88°
2026-05-06 09:22 10.59608 -67.24380 3994 ft 200 kts 88°
2026-05-06 09:22 10.59671 -67.22991 4022 ft 195 kts 89°
2026-05-06 09:23 10.59720 -67.21616 3989 ft 201 kts 89°
2026-05-06 09:23 10.59766 -67.20200 3712 ft 198 kts 89°
2026-05-06 09:23 10.59810 -67.18848 3465 ft 184 kts 89°
2026-05-06 09:23 10.59852 -67.17595 3232 ft 172 kts 89°
2026-05-06 09:24 10.59891 -67.16352 3076 ft 185 kts 90°
2026-05-06 09:24 10.59933 -67.15014 2784 ft 188 kts 89°
2026-05-06 09:24 10.59976 -67.13723 2536 ft 177 kts 89°
2026-05-06 09:24 10.60014 -67.12531 2322 ft 161 kts 89°
2026-05-06 09:25 10.60049 -67.11428 2112 ft 154 kts 90°
2026-05-06 09:25 10.60084 -67.10323 1953 ft 160 kts 89°
2026-05-06 09:25 10.60121 -67.09183 1754 ft 162 kts 89°
2026-05-06 09:25 10.60157 -67.08070 1515 ft 157 kts 90°
2026-05-06 09:26 10.60192 -67.06987 1293 ft 151 kts 89°
2026-05-06 09:26 10.60225 -67.05926 1097 ft 149 kts 89°
2026-05-06 09:26 10.60259 -67.04885 917 ft 148 kts 90°
2026-05-06 09:26 10.60292 -67.03829 740 ft 148 kts 89°
2026-05-06 09:27 10.60326 -67.02772 562 ft 152 kts 88°
2026-05-06 09:27 10.60365 -67.01681 352 ft 156 kts 87°
2026-05-06 09:27 10.60406 -67.00587 228 ft 146 kts 88°
2026-05-06 09:27 10.60425 -66.99803 217 ft 58 kts 89°
2026-05-06 09:28 10.60438 -66.99378 205 ft 60 kts 88°
2026-05-06 09:28 10.60448 -66.99092 187 ft 23 kts 88°
2026-05-06 09:28 10.60450 -66.98927 182 ft 24 kts 90°
2026-05-06 09:28 10.60457 -66.98760 179 ft 24 kts 86°
2026-05-06 09:29 10.60453 -66.98656 176 ft 8 kts 126°
2026-05-06 09:29 10.60410 -66.98670 177 ft 8 kts 242°
2026-05-06 09:29 10.60380 -66.98719 178 ft 8 kts 238°
2026-05-06 09:29 10.60350 -66.98768 180 ft 8 kts 238°
2026-05-06 09:30 10.60321 -66.98818 183 ft 8 kts 239°
2026-05-06 09:30 10.60292 -66.98867 199 ft 8 kts 239°
2026-05-06 09:30 10.60288 -66.98923 193 ft 8 kts 270°
2026-05-06 09:30 10.60283 -66.98981 192 ft 8 kts 264°
2026-05-06 09:31 10.60278 -66.99038 201 ft 8 kts 265°
2026-05-06 09:31 10.60273 -66.99096 199 ft 8 kts 257°
2026-05-06 09:31 10.60224 -66.99117 208 ft 8 kts 183°
2026-05-06 09:31 10.60168 -66.99111 206 ft 8 kts 167°
2026-05-06 09:32 10.60113 -66.99095 211 ft 8 kts 165°
2026-05-06 09:32 10.60057 -66.99081 212 ft 10 kts 166°
2026-05-06 09:32 10.59955 -66.99057 213 ft 12 kts 167°
2026-05-06 09:32 10.59916 -66.99038 215 ft 6 kts 120°
2026-05-06 09:33 10.59919 -66.98985 206 ft 9 kts 77°
2026-05-06 09:33 10.59938 -66.98907 203 ft 13 kts 77°
2026-05-06 09:33 10.59962 -66.98808 203 ft 16 kts 76°
2026-05-06 09:33 10.59996 -66.98691 197 ft 19 kts 73°
2026-05-06 09:34 10.60021 -66.98595 191 ft 13 kts 76°
2026-05-06 09:34 10.60061 -66.98501 181 ft 16 kts 60°
2026-05-06 09:34 10.60095 -66.98386 176 ft 18 kts 76°
2026-05-06 09:34 10.60128 -66.98249 170 ft 21 kts 77°
2026-05-06 09:35 10.60167 -66.98094 162 ft 24 kts 75°
2026-05-06 09:35 10.60190 -66.97997 158 ft 9 kts 80°
2026-05-06 09:35 10.60163 -66.97986 158 ft 6 kts 226°
2026-05-06 09:35 10.60132 -66.98008 159 ft 0 kts 209°